Weather in Starotitarovskaya

Russia / Krasnodar Krai     45°13′28″N   37°09′34″E
temp.,
°C
wind,
m/s
gust,
m/s
humid.,
%
clouds,
%
prec.,
mm/h
press.,
hPa
HPBL,
m
14 april, wed
wed1400:00+8w118244 0.0 102110
03:00+8nne1185100 0.0 102011
06:00+8sse1185100 0.0 101913
09:00+10s3478100 0.0 1019375
12:00+13ssw666611 0.0 1018842
15:00+13ssw7864100 0.0 1018696
18:00+11ssw6873100 0.0 1017557
21:00+9sse3784100 0.0 1018217
15 april, thu
thu1500:00+10sse27805 0.0 1016277
03:00+8sse33851 0.0 101652
06:00+8s4782100 0.0 1016131
09:00+12s6970100 0.0 1016279
12:00+12ssw6772100 0.3 1017378
15:00+13ssw6873100 0.8 1017481
18:00+11sw68713 0.0 1017331
21:00+8sw48876 0.0 1018176
16 april, fri
fri1600:00+8sw4891100 0.0 1017227
03:00+7wsw3592100 0.0 1017147
06:00+7ssw119276 0.0 101733
09:00+11ssw4573100 0.0 1019549
12:00+10ssw5780100 0.1 1019495
15:00+12sw676689 0.1 1019683
18:00+10sw6974100 0.0 1020590
21:00+9sw59875 0.0 1020283
17 april, sat
sat1700:00+8sw58905 0.0 1021224
03:00+7nw34910 0.0 102292
06:00+5nw23882 0.0 102267
09:00+9wnw11687 0.0 1023640
12:00+11nnw2260100 0.0 1023979
15:00+11n2162100 0.0 1023724
18:00+10nne337017 0.0 1022267
21:00+8ne3577100 0.0 1022104
18 april, sun
sun1800:00+8ene3577100 0.0 1021108
03:00+7ene4877100 0.0 1020226
06:00+8ene51078100 0.0 1019334
09:00+8ene61089100 0.3 1018340
12:00+12ene667956 0.1 1018504
15:00+11nne6788100 0.3 1018263
18:00+10ne5794100 0.8 1018247
21:00+9ene479661 1.4 1019250